カタログに戻る

CORVUS BC1

運用中科学SSO
NORAD 42847·PAYLOAD·🇺🇸 United States

打ち上げ Jul 14, 2017 から Baikonur Cosmodrome

Loading…

次のパス (今後24時間)

TLE

最新Source: Space-Track

元期: Sep 14, 2026, 09:08 UTC

1 42847U 17042Y   26257.38108692  .00002773  00000-0  18931-3 0  9992
2 42847  97.4212  56.2233 0012789 137.5243 222.6977 15.06916439500526

AllMySatでCORVUS BC1をリアルタイム追跡

Download on the App Store